Weather History for Jordan, MT

Change the Weather History Date:

Monday, December 31, 2012

  Actual Average Record
Temperature  
Mean Temperature 14 °F 16 °F  
Max Temperature 28 °F 29 °F 56 °F (1963)
Min Temperature 0 °F 4 °F -40 °F (1992)
Degree Days  
Heating Degree Days 51 48  
Month to date heating degree days 1329 1429  
Since 1 July heating degree days 3099 3450  
Cooling Degree Days 0 0  
Month to date cooling degree days 0 0  
Year to date cooling degree days 728 421  
Moisture  
Dew Point 9 °F    
Average Humidity 77    
Maximum Humidity 100    
Minimum Humidity 53    
Precipitation  
Precipitation 0.00 in 0.01 in 0.35 in (1977)
Month to date precipitation 0.32 0.29  
Year to date precipitation 8.01 12.67  
Snow  
Snow 0.00 in - - ()
Month to date snowfall 0.0  
Since 1 July snowfall 0.0  
Snow Depth 0.00 in    
Sea Level Pressure  
Sea Level Pressure 30.16 in    
Wind  
Wind Speed 4 mph (WNW)    
Max Wind Speed 12 mph    
Max Gust Speed 14 mph    
T = Trace of Precipitation, MM = Missing Value Source: NWS Daily Summary

Daily Weather History Graph

Daily Weather History Graph

Search for Another Location

Airport:

Trip Planner

Search our weather history database for the weather conditions in past years. The results will help you decide how hot, cold, wet, or windy it might be!

Date:

Astronomy

Dec. 31, 2012 Rise Set
Actual Time 7:54 AM MST 4:27 PM MST
Civil Twilight 7:19 AM MST 5:03 PM MST
Nautical Twilight 6:40 AM MST 5:42 PM MST
Astronomical Twilight 6:03 AM MST 6:19 PM MST
Moon 8:16 PM MST (12/31) 9:24 AM MST (12/31)
Length of Visible Light 9h 43m
Length of Day
8h 32m
Waning Gibbous, 90% of the Moon is Illuminated
Dec 31
Waning Gibbous
Jan 4
Last Quarter
Jan 11
New
Jan 18
First Quarter
Jan 26
Full

Hourly Weather History & Observations

Time (MST) Temp. Windchill Dew Point Humidity Pressure Visibility Wind Dir Wind Speed Gust Speed Precip Events Conditions
12:48 AM 16.0 °F - 12.9 °F 88% 30.14 in - Calm Calm - N/A   Unknown
1:48 AM 9.0 °F 2.4 °F 8.1 °F 96% 30.16 in - WNW 3.5 mph - N/A   Unknown
2:48 AM 10.0 °F -0.9 °F 8.1 °F 92% 30.18 in - WNW 6.9 mph - N/A   Unknown
3:48 AM 3.0 °F - 1.0 °F 91% 30.19 in - Calm Calm - N/A   Unknown
4:48 AM 1.9 °F -5.6 °F -0.9 °F 88% 30.18 in - West 3.5 mph - N/A   Unknown
5:48 AM 1.0 °F -6.7 °F -2.9 °F 83% 30.18 in - West 3.5 mph - N/A   Unknown
6:48 AM 8.1 °F -3.2 °F 3.9 °F 83% 30.17 in - West 6.9 mph - N/A   Unknown
7:48 AM 1.9 °F -5.6 °F -2.0 °F 83% 30.17 in - West 3.5 mph - N/A   Unknown
8:48 AM 3.9 °F -3.4 °F 1.9 °F 91% 30.17 in - West 3.5 mph - N/A   Unknown
9:48 AM 12.9 °F 6.9 °F 10.0 °F 88% 30.15 in - WNW 3.5 mph - N/A   Unknown
10:48 AM 17.1 °F 10.0 °F 12.0 °F 81% 30.15 in - NW 4.6 mph - N/A   Unknown
11:48 AM 23.0 °F 18.4 °F 15.1 °F 72% 30.13 in - West 3.5 mph - N/A   Unknown
12:48 PM 28.0 °F 20.0 °F 14.0 °F 56% 30.10 in - West 8.1 mph - N/A   Unknown
1:48 PM 27.0 °F 17.3 °F 15.1 °F 61% 30.10 in - West 10.4 mph - N/A   Unknown
2:48 PM 27.0 °F 18.7 °F 16.0 °F 63% 30.12 in - WNW 8.1 mph - N/A   Unknown
3:48 PM 25.0 °F 15.5 °F 15.1 °F 66% 30.14 in - WNW 9.2 mph - N/A   Unknown
4:48 PM 23.0 °F 15.8 °F 15.1 °F 72% 30.14 in - WNW 5.8 mph - N/A   Unknown
5:48 PM 19.9 °F - 14.0 °F 78% 30.16 in - Calm Calm - N/A   Unknown
6:48 PM 19.9 °F 14.9 °F 15.1 °F 81% 30.16 in - East 3.5 mph - N/A   Unknown
7:48 PM 19.0 °F 12.3 °F 15.1 °F 85% 30.15 in - West 4.6 mph - N/A   Unknown
8:48 PM 15.1 °F - 10.9 °F 84% 30.18 in - Calm Calm - N/A   Unknown
9:48 PM 12.9 °F - 10.0 °F 88% 30.18 in - Calm Calm - N/A   Unknown
10:48 PM 7.0 °F 0.1 °F 3.9 °F 87% 30.21 in - West 3.5 mph - N/A   Unknown
11:48 PM 3.9 °F -8.2 °F 1.9 °F 91% 30.20 in - West 6.9 mph - N/A   Unknown